Regional Weather Roundup
Issued by NWS

Home | Current Version | Previous Version | Text Only | Print | Product List | Glossary Off
Versions: 1 2 3 4 5 6 7 8 9 10 11 12 13 14 15 16 17 18 19 20 21 22 23 24 25 26 27 28 29 30 31 32 33 34 35 36 37 38 39 40 41 42 43 44 45 46 47 48 49 50

000
ASUS43 KLMK 271210
RWRKY
KENTUCKY REGIONAL WEATHER ROUNDUP
NATIONAL WEATHER SERVICE LOUISVILLE KY
800 AM EDT WED MAY 27 2015

NOTE "FAIR" INDICATES FEW OR NO CLOUDS BELOW 12,000 FEET
WITH NO SIGNIFICANT WEATHER AND/OR OBSTRUCTIONS TO VISIBILITY.

KYZ001>023-026-027-061>063-070>075-271300-
WESTERN AND SOUTH CENTRAL KENTUCKY

CITY           SKY/WX    TMP DP  RH WIND       PRES   REMARKS
PADUCAH        PTSUNNY   67  64  90 S5        30.09R
HENDERSON      MOSUNNY   66  61  82 S3        30.10R
OWENSBORO      CLOUDY    67  65  93 S6        30.12R
HOPKINSVILLE   MOSUNNY   67  65  94 S6        30.12S
BOWLING GREEN  SUNNY     70  66  87 S7        30.14S
GLASGOW        PTSUNNY   70  68  94 S6        30.16R FOG
$$

KYZ024-025-028>034-038-045-046-053-271300-
NORTH CENTRAL KENTUCKY

CITY           SKY/WX    TMP DP  RH WIND       PRES   REMARKS
LOUISVILLE/SDF PTSUNNY   69  66  90 S7        30.12S
LOUISVILLE/LOU CLOUDY    69  66  90 VRB3      30.13R
FORT KNOX      CLOUDY    67  66  97 S7        30.12R
$$

KYZ035>037-039>044-047>052-055>060-089>105-271300-
NORTHEAST KENTUCKY

CITY           SKY/WX    TMP DP  RH WIND       PRES   REMARKS
LEXINGTON      CLOUDY    69  67  93 SW8       30.15R
COVINGTON      MOSUNNY   67  64  90 SW7       30.12R
FRANKFORT      CLOUDY    69  66  90 SW7       30.13R
$$

KYZ054-064>069-076>088-106>120-271300-
SOUTHEAST KENTUCKY

CITY           SKY/WX    TMP DP  RH WIND       PRES   REMARKS
JACKSON        CLOUDY    67  63  87 CALM      30.20R
LONDON         PTSUNNY   68  62  81 VRB5      30.20R
SOMERSET       PTSUNNY   66  64  94 S5        30.20R
MIDDLESBORO    PTSUNNY   68  64  85 S3        30.22S
MONTICELLO     MOSUNNY   70  67  90 S3        30.22R
$$



USA.gov is the U.S. government's official web portal to all federal, state and local government web resources and services.